Showing default

FLOCK 4H 19, 66722

Orbit data source: Space-Track

FLOCK 4H 19, 66722 is a payload satellite owned by Planet (US) in SSO that was launched on Fri, 28 Nov 2025 UTC via an FALCON 9 launch vehicle from the Air Force Western Test Range (AFWTR). Payload-class satellites include a variety of spacecraft equipped with specific instruments for various scientific and technological missions. These include communications satellites like Starlink; space stations such as the ISS; scientific satellites like the Hubble; Earth observation satellites from companies like Planet Labs, Umbra, and HawkEye 360; GPS; miniature CubeSats for education and research; and military/defense satellites.

Loading next visibility...
Identifier
66722, 2025-276BJ
Orbit
SSO
Country
Flag of USUS
Related business
Manufacturer
Planet
Mission
Operational Commercial Imaging
Bus & Motor
CUBESAT 3U, Unknown motor
Mass
5.7 kg wet, 5.7 kg dry
Launch date (UTC)
2025-11-28 (6 months ago)
Launch vehicle
FALCON 9
Launch site
Air Force Western Test Range (AFWTR)
Object type
Payload
Rocket body
Debris
Shape & HBR
Box + 2 Pan, 1.0 m
Radar Cross Section
0.072 m², Medium (>0.1 m² and < 1m²)

Expand to show TLE details & history
Last TLE update: 6 days ago

TLE from 6 days ago
0 FLOCK 4H 19
1 66722U 25276BJ  26155.09234626  .00006731  00000-0  30773-3 0  9996
2 66722  97.4180 229.1257 0001514  35.3539 324.7797 15.20872697 27747
Epoch: 2026-06-04T02:12Z
TLE epoch observation values (Epoch: 2026-06-04T02:12:58.716Z)
Latitude
-0.00002°
Longitude
-56.66052°
Altitude
505.447 km
Speed
7.612 km/s
True Right ascension
15h 16m 30s
True Declination
0° 00' 00"
Sunlit
Object was in full shadow at epoch
Visualization orbit readout
Latitude
Unknown
Longitude
Unknown
Altitude
Unknown
Speed
Unknown
Apparent Right ascension
Unknown
Apparent Declination
Unknown
Sunlit
N/A
Visualization observer readout
Local Sidereal Time
20:57:27
Azimuth
Unknown
Elevation
Unknown
Doppler factor
Unknown
Orbital elements
Apogee altitude
501.214 km
Perigee altitude
499.131 km
Semi-major axis
6,878.309 km
Eccentricity
0.00015
Inclination
97.418°
RAAN
229.1257°
Arg. of periapsis
35.3539°
True anomaly
324.76969°
Mean anomaly
324.7797°
Eccentric anomaly
324.7747°
Mean motion
3.8047 °/min
Orbital period
94.62 mins
BSTAR
0.00030773
Loading maneuver chart data...
Computing Atmospheric mass density...
Loading historical data...
Loading historical data...
Loading historical data...
Loading historical data...
Loading historical data...
Loading historical data...
Loading historical data...

Documentation

Showing up to 5 results
|